Dallesport, WA

4:14 AM PDT on August 30, 2016 (GMT -0700)
Columbia Gorge Regional-The Dalles

Weather History for KDLS - April, 2013

Change the Weather History Date:

Saturday, April 20, 2013

  Actual Average Record
Temperature  
Mean Temperature 56 °F -  
Max Temperature 63 °F 64 °F 89 °F (2016)
Min Temperature 50 °F 42 °F 26 °F (1985)
Degree Days  
Heating Degree Days 9    
Growing Degree Days 6 (Base 50)    
Moisture  
Dew Point 39 °F    
Average Humidity 56    
Maximum Humidity 74    
Minimum Humidity 43    
Precipitation  
Precipitation 0.00 in - - ()
Sea Level Pressure  
Sea Level Pressure 30.22 in    
Wind  
Wind Speed 16 mph (WNW)    
Max Wind Speed 24 mph    
Max Gust Speed 34 mph    
Visibility 10 miles    
Events      
Averages and records for this station are not official NWS values.
T = Trace of Precipitation, MM = Missing Value Source: NWS Daily Summary

Daily Weather History Graph

Daily Weather History Graph

Search for Another Location

Airport or City:

Trip Planner

Search our weather history database for the weather conditions in past years. The results will help you decide how hot, cold, wet, or windy it might be!

Date:

Astronomy

Apr. 20, 2013 Rise Set
Actual Time 6:09 AM PDT 7:58 PM PDT
Civil Twilight 5:38 AM PDT 8:29 PM PDT
Nautical Twilight 4:59 AM PDT 9:08 PM PDT
Astronomical Twilight 4:17 AM PDT 9:50 PM PDT
Moon 2:32 PM PDT (4/20) 3:18 AM PDT (4/20)
Length of Visible Light 14h 51m
Length of Day
13h 48m
Waxing Gibbous, 72% of the Moon is Illuminated
Apr 20
Waxing Gibbous
Apr 25
Full
May 2
Last Quarter
May 9
New
May 17
First Quarter

Hourly Weather History & Observations

Time (PDT) Temp. Dew Point Humidity Pressure Visibility Wind Dir Wind Speed Gust Speed Precip Events Conditions
12:53 AM 52.0 °F 42.1 °F 69% 30.20 in 10.0 mi WNW 13.8 mph - N/A   Clear
1:53 AM 52.0 °F 43.0 °F 71% 30.20 in 10.0 mi West 11.5 mph - N/A   Partly Cloudy
2:53 AM 52.0 °F 42.1 °F 69% 30.20 in 10.0 mi West 13.8 mph - N/A   Overcast
3:53 AM 51.1 °F 42.1 °F 71% 30.22 in 10.0 mi West 9.2 mph - N/A   Overcast
4:53 AM 50.0 °F 42.1 °F 74% 30.22 in 10.0 mi WNW 5.8 mph - N/A   Overcast
5:53 AM 50.0 °F 42.1 °F 74% 30.22 in 10.0 mi WNW 12.7 mph - N/A   Mostly Cloudy
6:53 AM 51.1 °F 39.9 °F 66% 30.23 in 10.0 mi West 21.9 mph 34.5 mph N/A   Mostly Cloudy
7:53 AM 53.1 °F 37.9 °F 57% 30.25 in 10.0 mi WNW 21.9 mph 29.9 mph N/A   Clear
8:53 AM 54.0 °F 37.0 °F 53% 30.25 in 10.0 mi WNW 21.9 mph 29.9 mph N/A   Clear
9:53 AM 57.9 °F 37.0 °F 46% 30.25 in 10.0 mi WNW 17.3 mph 24.2 mph N/A   Clear
10:53 AM 59.0 °F 37.9 °F 46% 30.25 in 10.0 mi WNW 19.6 mph 27.6 mph N/A   Clear
11:53 AM 57.9 °F 39.0 °F 49% 30.25 in 10.0 mi NNW 19.6 mph 26.5 mph N/A   Partly Cloudy
12:53 PM 61.0 °F 39.0 °F 44% 30.25 in 10.0 mi NW 20.7 mph 29.9 mph N/A   Clear
1:53 PM 62.1 °F 39.0 °F 43% 30.23 in 10.0 mi NW 21.9 mph - N/A   Clear
2:53 PM 61.0 °F 39.0 °F 44% 30.22 in 10.0 mi WNW 21.9 mph 29.9 mph N/A   Clear
3:53 PM 61.0 °F 39.0 °F 44% 30.21 in 10.0 mi NW 19.6 mph 29.9 mph N/A   Clear
4:53 PM 59.0 °F 37.9 °F 46% 30.21 in 10.0 mi WNW 21.9 mph 29.9 mph N/A   Clear
5:53 PM 57.0 °F 37.0 °F 47% 30.19 in 10.0 mi WNW 21.9 mph 27.6 mph N/A   Clear
6:53 PM 57.0 °F 37.9 °F 49% 30.18 in 10.0 mi WNW 23.0 mph 32.2 mph N/A   Clear
7:53 PM 55.0 °F 37.9 °F 53% 30.19 in 10.0 mi WNW 24.2 mph 32.2 mph N/A   Clear
8:53 PM 54.0 °F 37.9 °F 55% 30.21 in 10.0 mi WNW 12.7 mph - N/A   Clear
9:53 PM 53.1 °F 39.0 °F 59% 30.22 in 10.0 mi WNW 9.2 mph - N/A   Clear
10:53 PM 53.1 °F 39.0 °F 59% 30.21 in 10.0 mi NW 8.1 mph - N/A   Clear
11:53 PM 53.1 °F 39.9 °F 61% 30.21 in 10.0 mi NW 15.0 mph - N/A   Clear